Location: *
(57.8420°S, 159.8600°W)
Time: 04:13:15
(UTC+00:00)

Cosmos 2369 Rocket - Pass Details

Date: 18 May 2021
Orbit: 827 x 854 km, 71.0° (Epoch: 23 June)

Event Time Altitude Azimuth Distance (km) Brightness Sun altitude
Rises 04:33:56 0° 219° (SW) 3,429 5.8 -16.2°
Reaches altitude 10° 04:36:27 10° 215° (SW) 2,486 4.9 -16.6°
Maximum altitude 04:42:05 59° 135° (SE) 975 2.2 -17.3°
Enters shadow 04:45:40 22° 62° (ENE) 1,748 3.4 -17.8°
